Time,TemperatureF,DewpointF,PressureIn,WindDirection,WindDirectionDegrees,WindSpeedMPH,WindSpeedGustMPH,Humidity,HourlyPrecipIn,Conditions,Clouds,dailyrainin,SoftwareType,DateUTC
2013-09-18 00:13:00,59.3,56.0,25.46,SSW,204,4.0,5.0,87,0.00,,,0.00,weatherlink.com 1.10,2013-09-18 06:13:00,
2013-09-18 00:28:00,59.2,56.0,25.45,SSW,205,5.0,6.0,88,0.00,,,0.00,weatherlink.com 1.10,2013-09-18 06:28:00,
2013-09-18 00:43:00,59.0,55.0,25.45,SSW,201,6.0,6.0,87,0.00,,,0.00,weatherlink.com 1.10,2013-09-18 06:43:00,
2013-09-18 00:59:00,58.9,55.0,25.45,SW,214,6.0,7.0,88,0.00,,,0.00,weatherlink.com 1.10,2013-09-18 06:59:00,
2013-09-18 01:14:00,59.0,55.0,25.45,SSW,210,5.0,6.0,87,0.00,,,0.00,weatherlink.com 1.10,2013-09-18 07:14:00,
2013-09-18 01:29:00,59.3,56.0,25.45,SW,231,6.0,7.0,87,0.00,,,0.00,weatherlink.com 1.10,2013-09-18 07:29:00,
2013-09-18 01:44:00,58.7,55.0,25.45,SW,229,5.0,5.0,87,0.00,,,0.00,weatherlink.com 1.10,2013-09-18 07:44:00,
2013-09-18 01:59:00,58.5,55.0,25.45,WSW,240,5.0,5.0,87,0.00,,,0.00,weatherlink.com 1.10,2013-09-18 07:59:00,
2013-09-18 02:14:00,58.0,54.0,25.45,SW,232,5.0,5.0,87,0.00,,,0.00,weatherlink.com 1.10,2013-09-18 08:14:00,
2013-09-18 02:29:00,57.8,54.0,25.44,WSW,239,5.0,5.0,86,0.00,,,0.00,weatherlink.com 1.10,2013-09-18 08:29:00,
2013-09-18 02:44:00,57.9,54.0,25.44,WSW,243,5.0,5.0,86,0.00,,,0.00,weatherlink.com 1.10,2013-09-18 08:44:00,
2013-09-18 02:59:00,58.6,54.0,25.43,WSW,243,5.0,5.0,85,0.00,,,0.00,weatherlink.com 1.10,2013-09-18 08:59:00,
2013-09-18 03:14:00,58.6,54.0,25.43,WSW,240,5.0,5.0,83,0.00,,,0.00,weatherlink.com 1.10,2013-09-18 09:14:00,
2013-09-18 03:29:00,57.8,53.0,25.43,SW,232,4.0,5.0,84,0.00,,,0.00,weatherlink.com 1.10,2013-09-18 09:29:00,
2013-09-18 03:44:00,56.9,53.0,25.42,SW,233,4.0,5.0,86,0.00,,,0.00,weatherlink.com 1.10,2013-09-18 09:44:00,
2013-09-18 03:59:00,56.3,53.0,25.42,WSW,243,4.0,5.0,88,0.00,,,0.00,weatherlink.com 1.10,2013-09-18 09:59:00,
2013-09-18 04:14:00,56.7,53.0,25.41,SW,225,6.0,6.0,88,0.00,,,0.00,weatherlink.com 1.10,2013-09-18 10:14:00,
2013-09-18 04:29:00,57.2,53.0,25.42,WSW,243,7.0,7.0,86,0.00,,,0.00,weatherlink.com 1.10,2013-09-18 10:29:00,
2013-09-18 04:59:00,57.8,54.0,25.41,WSW,249,5.0,5.0,86,0.00,,,0.00,weatherlink.com 1.10,2013-09-18 10:59:00,
2013-09-18 05:14:00,57.2,53.0,25.41,West,276,5.0,6.0,87,0.00,,,0.00,weatherlink.com 1.10,2013-09-18 11:14:00,
2013-09-18 05:44:00,57.0,53.0,25.42,WSW,248,6.0,6.0,86,0.00,,,0.00,weatherlink.com 1.10,2013-09-18 11:44:00,
2013-09-18 05:59:00,56.8,53.0,25.42,WSW,245,4.0,6.0,87,0.00,,,0.00,weatherlink.com 1.10,2013-09-18 11:59:00,
2013-09-18 06:14:00,56.8,53.0,25.42,WSW,246,6.0,6.0,86,0.00,,,0.00,weatherlink.com 1.10,2013-09-18 12:14:00,
2013-09-18 06:29:00,56.8,53.0,25.43,WSW,257,7.0,10.0,86,0.00,,,0.00,weatherlink.com 1.10,2013-09-18 12:29:00,
2013-09-18 06:44:00,57.0,53.0,25.43,WSW,243,8.0,11.0,85,0.00,,,0.00,weatherlink.com 1.10,2013-09-18 12:44:00,
2013-09-18 06:59:00,56.9,53.0,25.44,West,271,6.0,10.0,85,0.00,,,0.00,weatherlink.com 1.10,2013-09-18 12:59:00,
2013-09-18 07:15:00,57.5,53.0,25.44,West,274,5.0,7.0,84,0.00,,,0.00,weatherlink.com 1.10,2013-09-18 13:15:00,
2013-09-18 07:29:00,58.6,54.0,25.46,WSW,252,14.0,21.0,83,0.00,,,0.00,weatherlink.com 1.10,2013-09-18 13:29:00,
2013-09-18 07:44:00,62.5,55.0,25.45,WNW,298,1.0,6.0,76,0.00,,,0.00,weatherlink.com 1.10,2013-09-18 13:44:00,
2013-09-18 07:59:00,65.4,55.0,25.44,NW,317,7.0,8.0,68,0.00,,,0.00,weatherlink.com 1.10,2013-09-18 13:59:00,
2013-09-18 08:15:00,66.2,55.0,25.45,NW,314,7.0,12.0,68,0.00,,,0.00,weatherlink.com 1.10,2013-09-18 14:15:00,
2013-09-18 08:29:00,68.6,55.0,25.44,WNW,300,13.0,14.0,63,0.00,,,0.00,weatherlink.com 1.10,2013-09-18 14:29:00,
2013-09-18 08:45:00,72.0,54.0,25.43,WNW,302,6.0,14.0,54,0.00,,,0.00,weatherlink.com 1.10,2013-09-18 14:45:00,
2013-09-18 09:00:00,72.6,53.0,25.44,WNW,297,6.0,13.0,51,0.00,,,0.00,weatherlink.com 1.10,2013-09-18 15:00:00,
2013-09-18 09:15:00,73.4,54.0,25.43,NW,311,6.0,10.0,50,0.00,,,0.00,weatherlink.com 1.10,2013-09-18 15:15:00,
2013-09-18 09:30:00,75.1,52.0,25.43,NW,309,14.0,18.0,45,0.00,,,0.00,weatherlink.com 1.10,2013-09-18 15:30:00,
2013-09-18 09:45:00,75.3,54.0,25.44,NW,312,6.0,10.0,47,0.00,,,0.00,weatherlink.com 1.10,2013-09-18 15:45:00,
2013-09-18 10:00:00,78.5,52.0,25.44,NNW,338,13.0,15.0,40,0.00,,,0.00,weatherlink.com 1.10,2013-09-18 16:00:00,
2013-09-18 10:15:00,80.7,52.0,25.44,North,349,10.0,16.0,37,0.00,,,0.00,weatherlink.com 1.10,2013-09-18 16:15:00,
2013-09-18 10:30:00,80.3,52.0,25.44,NW,321,9.0,14.0,38,0.00,,,0.00,weatherlink.com 1.10,2013-09-18 16:30:00,
2013-09-18 10:45:00,82.1,51.0,25.43,NW,317,13.0,16.0,34,0.00,,,0.00,weatherlink.com 1.10,2013-09-18 16:45:00,
2013-09-18 11:00:00,82.8,52.0,25.43,NNW,344,12.0,15.0,35,0.00,,,0.00,weatherlink.com 1.10,2013-09-18 17:00:00,
2013-09-18 11:15:00,83.7,50.0,25.43,WNW,295,13.0,21.0,31,0.00,,,0.00,weatherlink.com 1.10,2013-09-18 17:15:00,
2013-09-18 11:30:00,84.3,48.0,25.43,NW,316,14.0,22.0,28,0.00,,,0.00,weatherlink.com 1.10,2013-09-18 17:30:00,
2013-09-18 11:45:00,83.7,53.0,25.43,NW,317,9.0,19.0,35,0.00,,,0.00,weatherlink.com 1.10,2013-09-18 17:45:00,
2013-09-18 12:00:00,85.6,45.0,25.43,NW,319,20.0,26.0,24,0.00,,,0.00,weatherlink.com 1.10,2013-09-18 18:00:00,
2013-09-18 12:30:00,86.6,47.0,25.43,NW,307,16.0,21.0,25,0.00,,,0.00,weatherlink.com 1.10,2013-09-18 18:30:00,
2013-09-18 12:45:00,86.6,46.0,25.43,NW,316,15.0,24.0,24,0.00,,,0.00,weatherlink.com 1.10,2013-09-18 18:45:00,
2013-09-18 13:01:00,86.2,45.0,25.43,NW,318,14.0,20.0,24,0.00,,,0.00,weatherlink.com 1.10,2013-09-18 19:01:00,
2013-09-18 13:15:00,86.0,47.0,25.43,NW,307,13.0,24.0,26,0.00,,,0.00,weatherlink.com 1.10,2013-09-18 19:15:00,
2013-09-18 13:30:00,86.7,47.0,25.43,West,264,17.0,18.0,25,0.00,,,0.00,weatherlink.com 1.10,2013-09-18 19:30:00,
2013-09-18 13:45:00,86.1,47.0,25.43,WSW,255,10.0,22.0,26,0.00,,,0.00,weatherlink.com 1.10,2013-09-18 19:45:00,
2013-09-18 14:00:00,86.5,47.0,25.43,NW,325,18.0,23.0,25,0.00,,,0.00,weatherlink.com 1.10,2013-09-18 20:00:00,
2013-09-18 14:15:00,86.1,45.0,25.43,NW,311,16.0,23.0,24,0.00,,,0.00,weatherlink.com 1.10,2013-09-18 20:15:00,
2013-09-18 14:30:00,85.9,44.0,25.43,WNW,300,9.0,18.0,23,0.00,,,0.00,weatherlink.com 1.10,2013-09-18 20:30:00,
2013-09-18 14:45:00,86.6,47.0,25.43,WSW,255,12.0,19.0,25,0.00,,,0.00,weatherlink.com 1.10,2013-09-18 20:45:00,
2013-09-18 15:00:00,86.1,45.0,25.42,NW,316,19.0,21.0,24,0.00,,,0.00,weatherlink.com 1.10,2013-09-18 21:00:00,
2013-09-18 15:15:00,85.8,47.0,25.42,NW,310,13.0,21.0,26,0.00,,,0.00,weatherlink.com 1.10,2013-09-18 21:15:00,
2013-09-18 15:30:00,86.3,44.0,25.42,NNW,335,11.0,21.0,23,0.00,,,0.00,weatherlink.com 1.10,2013-09-18 21:30:00,
2013-09-18 15:45:00,85.6,44.0,25.42,West,278,13.0,27.0,23,0.00,,,0.00,weatherlink.com 1.10,2013-09-18 21:45:00,
2013-09-18 16:00:00,85.1,44.0,25.42,WNW,295,15.0,22.0,24,0.00,,,0.00,weatherlink.com 1.10,2013-09-18 22:00:00,
2013-09-18 16:15:00,83.1,46.0,25.42,WNW,294,11.0,15.0,27,0.00,,,0.00,weatherlink.com 1.10,2013-09-18 22:15:00,
2013-09-18 16:30:00,83.0,47.0,25.42,NW,314,10.0,20.0,28,0.00,,,0.00,weatherlink.com 1.10,2013-09-18 22:30:00,
2013-09-18 16:45:00,84.0,46.0,25.42,NNW,342,5.0,18.0,26,0.00,,,0.00,weatherlink.com 1.10,2013-09-18 22:45:00,
2013-09-18 17:00:00,82.7,46.0,25.42,NW,306,5.0,13.0,28,0.00,,,0.00,weatherlink.com 1.10,2013-09-18 23:00:00,
2013-09-18 17:15:00,81.9,48.0,25.42,West,268,4.0,7.0,31,0.00,,,0.00,weatherlink.com 1.10,2013-09-18 23:15:00,
2013-09-18 17:30:00,82.2,49.0,25.42,NW,304,5.0,7.0,31,0.00,,,0.00,weatherlink.com 1.10,2013-09-18 23:30:00,
2013-09-18 17:45:00,80.2,49.0,25.42,WNW,284,4.0,9.0,34,0.00,,,0.00,weatherlink.com 1.10,2013-09-18 23:45:00,
2013-09-18 18:01:00,78.0,50.0,25.41,NNW,328,4.0,7.0,37,0.00,,,0.00,weatherlink.com 1.10,2013-09-19 00:01:00,
2013-09-18 18:15:00,76.5,50.0,25.42,NW,322,7.0,12.0,39,0.00,,,0.00,weatherlink.com 1.10,2013-09-19 00:15:00,
2013-09-18 18:30:00,75.7,50.0,25.42,NW,319,9.0,15.0,40,0.00,,,0.00,weatherlink.com 1.10,2013-09-19 00:30:00,
2013-09-18 18:45:00,75.1,48.0,25.43,NW,316,11.0,15.0,38,0.00,,,0.00,weatherlink.com 1.10,2013-09-19 00:45:00,
2013-09-18 19:00:00,74.7,48.0,25.43,NW,309,7.0,14.0,39,0.00,,,0.00,weatherlink.com 1.10,2013-09-19 01:00:00,
2013-09-18 20:01:00,64.9,50.0,25.48,East,86,4.0,4.0,58,0.04,,,0.04,weatherlink.com 1.10,2013-09-19 02:01:00,
2013-09-18 20:16:00,62.4,54.0,25.50,SE,143,6.0,6.0,75,0.04,,,0.04,weatherlink.com 1.10,2013-09-19 02:16:00,
2013-09-18 20:31:00,63.2,52.0,25.50,South,180,8.0,11.0,68,0.01,,,0.04,weatherlink.com 1.10,2013-09-19 02:31:00,
2013-09-18 20:46:00,64.7,52.0,25.50,SSE,163,7.0,13.0,64,0.00,,,0.04,weatherlink.com 1.10,2013-09-19 02:46:00,
2013-09-18 21:01:00,64.1,53.0,25.51,South,174,8.0,13.0,68,0.00,,,0.04,weatherlink.com 1.10,2013-09-19 03:01:00,
2013-09-18 21:16:00,62.2,55.0,25.50,South,186,5.0,10.0,76,0.00,,,0.04,weatherlink.com 1.10,2013-09-19 03:16:00,
2013-09-18 21:31:00,61.8,55.0,25.50,ESE,117,7.0,9.0,77,0.00,,,0.04,weatherlink.com 1.10,2013-09-19 03:31:00,
2013-09-18 23:01:00,61.6,54.0,25.48,SSE,163,1.0,1.0,75,0.00,,,0.04,weatherlink.com 1.10,2013-09-19 05:01:00,
2013-09-18 23:16:00,62.1,53.0,25.48,SSE,155,3.0,5.0,73,0.00,,,0.04,weatherlink.com 1.10,2013-09-19 05:16:00,
2013-09-18 23:31:00,61.1,54.0,25.50,NNW,340,3.0,3.0,77,0.00,,,0.04,weatherlink.com 1.10,2013-09-19 05:31:00,
2013-09-18 23:46:00,60.1,54.0,25.49,WSW,239,0.0,1.0,81,0.00,,,0.04,weatherlink.com 1.10,2013-09-19 05:46:00,